Regional Weather Roundup
Issued by NWS

Home | Current Version | Previous Version | Graphics & Text | Print | Product List | Glossary On
Versions: 1 2 3 4 5 6 7 8 9 10 11 12 13 14 15 16 17 18 19 20 21 22 23 24 25 26 27 28 29 30 31 32 33 34 35 36 37 38 39 40 41 42 43 44 45 46 47 48 49 50
000
ASUS45 KABQ 250410
RWRNM
NEW MEXICO REGIONAL WEATHER ROUNDUP
NATIONAL WEATHER SERVICE ALBUQUERQUE NM
1000 PM MDT TUE MAY 24 2016

NOTE: "FAIR" MEANS FEW OR NO CLOUDS BELOW 12,000 FEET AGL WITH NO
       SIGNIFICANT WEATHER OR OBSTRUCTIONS TO VISION.

      THIS PRODUCT IS RELEASED AS TWO VERSIONS.  ONE VERSION NEAR
      THE TOP OF THE HOUR CONTAINING PRELIMINARY DATA FROM ALBUQUERQUE
      AND OTHER STATIONS.  A FINAL VERSION WITH ADDITIONAL DATA IS
      ISSUED ABOUT 10 MINUTES AFTER THE HOUR.

NMZ501-503-504-510>518-250500-
NORTHWEST PLATEAU/NORTHCENTRAL MOUNTAINS

CITY           SKY/WX    TMP DP  RH WIND       PRES   REMARKS
FARMINGTON     FAIR      61   9  12 SW13      29.99R
LOS ALAMOS     FAIR      63   7  11 W23G35    30.07S
SANTA FE       FAIR      65   9  11 W12       30.03R
TAOS           FAIR      57  10  15 NW7       30.07R
ANGEL FIRE     CLOUDY    56  16  21 SW14G22   30.15R

$$
NMZ402-403-502-505>509-250500-
WESTCENTRAL MOUNTAINS/SOUTHWEST MOUNTAINS

CITY           SKY/WX    TMP DP  RH WIND       PRES   REMARKS
GALLUP         FAIR      57  10  15 SW12      30.09R
GRANTS         FAIR      59   9  13 W8        30.11R
SILVER CITY      N/A     64  14  14 NW6       30.09R

$$
NMZ407-409-411-412-250500-
SOUTHERN DESERTS

CITY           SKY/WX    TMP DP  RH WIND       PRES   REMARKS
LORDSBURG      FAIR      70  19  14 W7        30.02R
DEMING         FAIR      73  17  12 SW8       30.01R
LAS CRUCES     FAIR      73  14  10 W13       30.02R
HOLLOMAN AFB   FAIR      72  17  12 W9        29.96R
ALAMOGORDO     FAIR      66  19  16 S6        29.98R
T OR C         FAIR      70  19  14 W8        29.99R

$$
NMZ519>523-250500-
CENTRAL VALLEYS/CENTRAL HIGHLANDS

CITY           SKY/WX    TMP DP  RH WIND       PRES   REMARKS
ALBUQUERQUE    FAIR      71  14  11 W8        30.01R
DOUBLE EAGLE   CLEAR     57  16  19 SW9       30.04R
MORIARTY ARPT  FAIR      55   7  14 W9        30.05R
CLINES CORNERS FAIR      58  11  15 SW17      30.08R
BELEN          FAIR      65  11  12 SW9       30.01R
SOCORRO        FAIR      72  17  12 SW10      30.00R

$$
NMZ524>526-539-540-250500-
SOUTHCENTRAL MOUNTAINS

CITY           SKY/WX    TMP DP  RH WIND       PRES   REMARKS
RUIDOSO          N/A     61  16  17 SW12      30.16R

$$
NMZ527>531-250500-
NORTHEAST HIGHLANDS/NORTHEAST PLAINS

CITY           SKY/WX    TMP DP  RH WIND       PRES   REMARKS
LAS VEGAS      FAIR      55  17  22 S13       30.04R
RATON          FAIR      62  23  22 W10       29.97R
CLAYTON        FAIR      64  24  21 SW7       29.90R

$$
NMZ532>537-250500-
EASTCENTRAL PLAINS

CITY           SKY/WX    TMP DP  RH WIND       PRES   REMARKS
TUCUMCARI      FAIR      75  20  12 SW16      29.87R
CANNON AFB     FAIR      65  30  27 SW10      29.94R
CLOVIS AIRPORT FAIR      63  30  29 SW10      29.94R

$$
NMZ028-029-538-250500-
SOUTHEAST PLAINS

CITY           SKY/WX    TMP DP  RH WIND       PRES   REMARKS
ROSWELL        FAIR      71  16  12 SW10      29.92R
ARTESIA        FAIR      72  21  15 SE7       29.93R
CARLSBAD       FAIR      67  17  14 SW8       29.91R
HOBBS          FAIR      77  19  11 CALM      29.96R


$$



USA.gov is the U.S. government's official web portal to all federal, state and local government web resources and services.